Wind_Speed
40 39 36 36 37 36 35 35 32 28 26 23 23 24 21 14 11 11 11 19 28 18 25 31 28 36 36 34 32 27 27 19 14 14 10 4 4 4 0 3 8 12 15 17 16 11 5 2 4
44 41 41 40 40 38 37 36 36 34 31 27 24 19 17 15 13 14 15 22 20 16 22 27 26 28 35 37 34 32 26 24 25 24 21 20 19 18 17 15 14 12 10 9 10 12 12 10 7
47 45 41 43 43 36 36 37 37 35 34 31 27 25 17 17 18 16 14 16 14 13 22 23 23 26 30 35 35 31 29 24 23 25 26 25 24 24 24 24 23 23 21 20 18 16 13 11 8
48 48 47 47 46 43 41 36 34 35 37 34 30 29 23 23 19 18 12 12 16 14 18 20 20 24 27 30 32 32 29 26 24 25 25 26 26 28 26 24 22 21 19 19 16 13 9 7 5
54 49 52 53 49 47 45 39 35 36 32 33 27 20 27 26 16 15 13 12 12 15 17 18 18 23 25 26 30 31 29 26 22 20 19 19 20 20 20 19 19 19 17 13 11 9 6 4 6
59 56 54 56 53 53 48 42 36 37 34 31 31 29 19 21 16 17 13 12 10 15 14 17 15 22 22 21 26 29 29 28 27 19 16 16 15 16 15 15 15 15 12 9 7 5 6 8 11
63 61 58 60 56 57 52 48 44 44 38 34 33 31 26 21 20 20 21 17 17 14 13 16 14 18 20 19 23 25 25 27 27 25 19 14 13 12 10 10 10 10 10 10 11 11 13 14 17
65 64 62 60 63 59 56 54 48 45 43 40 33 31 28 24 22 22 20 20 19 15 15 14 15 17 19 19 23 23 24 26 27 27 24 21 19 16 15 14 12 12 13 15 15 14 15 17 19
68 65 68 65 63 60 61 58 53 47 48 44 43 39 33 33 27 24 20 21 25 22 20 17 15 17 17 22 23 23 26 27 28 27 26 22 20 19 17 17 17 16 18 19 18 21 23 24 27
71 69 68 69 64 64 60 54 54 50 50 49 48 44 41 37 34 29 25 27 27 22 19 19 18 18 21 23 22 22 25 27 28 29 28 26 23 22 21 20 19 20 21 21 21 24 25 28 31
76 75 70 68 65 62 62 58 55 51 52 51 50 51 47 43 38 33 31 31 30 24 22 22 21 22 20 20 22 22 27 29 29 30 27 25 24 24 23 21 21 23 24 25 27 27 30 34 35
83 79 75 73 68 65 62 61 58 53 51 53 50 49 49 45 41 36 35 33 30 28 24 23 21 23 24 20 23 25 25 28 28 29 26 24 24 26 25 25 25 24 26 28 32 33 35 35 38
88 84 79 76 71 68 66 60 59 59 58 56 53 50 45 43 40 37 38 34 33 30 27 24 25 27 26 31 26 25 28 29 28 27 26 24 22 22 26 29 30 32 33 34 35 37 38 41 44
92 89 85 80 76 70 68 60 61 58 55 54 55 52 49 48 44 43 41 38 36 30 28 30 29 31 34 33 31 31 31 28 28 28 27 24 24 25 26 29 31 33 36 38 40 43 44 46 47
97 94 88 84 79 74 71 64 64 61 56 55 54 58 56 50 48 50 44 39 37 37 37 34 37 35 36 36 36 33 31 30 27 28 27 28 27 29 32 34 35 36 38 41 43 44 47 49 52
101 96 91 86 82 78 76 70 68 63 59 56 55 54 50 50 50 50 47 48 47 46 44 41 40 39 38 39 37 36 35 35 29 26 28 30 30 32 36 38 38 40 43 45 46 49 51 53 53
100 98 94 91 88 83 79 75 73 66 64 60 57 56 54 51 51 51 49 50 48 51 49 46 44 42 40 37 35 34 36 36 37 35 34 35 37 39 42 45 46 47 47 49 51 54 56 56 54
102 101 98 95 94 90 83 80 77 70 66 63 58 56 54 51 45 44 48 52 49 48 47 47 46 44 42 39 37 38 36 38 39 39 40 43 45 45 47 49 50 51 50 51 50 53 53 53 51
105 104 103 99 97 95 88 83 80 74 68 65 61 59 58 55 51 49 46 46 47 46 49 47 48 48 46 42 43 44 43 41 42 45 47 48 48 51 54 54 54 54 52 50 49 50 48 49 51
106 106 104 101 101 99 94 86 83 78 70 67 65 60 61 57 54 52 50 47 44 43 42 43 47 51 51 49 48 48 49 50 50 51 51 54 56 57 58 56 54 51 48 46 48 45 45 47 50
111 108 104 103 104 101 97 89 86 80 75 71 65 62 63 62 59 57 53 50 49 48 44 45 42 45 52 50 52 52 54 53 57 53 52 52 52 50 48 48 46 42 44 42 42 45 49 52 54
113 108 106 106 106 104 99 92 86 84 78 72 67 66 67 66 66 63 58 55 54 53 50 49 46 44 45 47 50 52 51 52 47 49 45 43 43 42 39 36 40 44 46 48 46 48 53 57 62
115 111 108 106 107 106 100 95 87 86 80 75 75 72 73 72 69 66 64 62 59 55 55 53 51 50 49 49 47 48 50 49 48 46 47 48 45 44 44 45 45 48 48 50 52 56 61 64 66
119 115 109 108 108 104 103 94 85 89 81 82 82 80 77 75 73 69 68 66 65 62 59 59 56 54 52 51 54 55 55 53 52 53 52 49 47 48 48 49 51 53 56 58 60 64 68 68 71
117 118 113 111 111 101 102 97 85 88 88 84 88 87 82 79 78 77 72 70 68 67 66 63 60 60 59 58 59 60 60 57 57 55 55 54 53 53 54 55 57 59 61 64 67 69 70 72 75
109 122 119 112 109 108 106 98 90 88 90 90 88 90 88 85 83 81 79 76 71 71 70 68 66 65 63 62 62 62 61 60 60 59 59 58 59 59 59 61 62 64 66 69 69 71 73 75 79
107 118 120 116 112 115 110 100 95 94 90 90 92 92 92 89 86 82 79 78 76 75 74 72 71 69 68 66 65 64 64 62 62 60 61 64 62 62 63 64 65 67 69 71 72 74 76 79 83
107 108 118 121 120 115 112 107 95 93 92 92 94 95 94 93 91 88 84 82 82 81 80 77 74 73 73 72 71 69 68 67 67 65 65 65 66 66 67 67 68 69 71 73 74 77 80 83 87
113 107 108 111 122 123 115 109 101 95 96 96 96 96 95 96 96 93 91 88 86 83 83 83 81 79 77 76 75 72 72 72 70 69 70 70 70 71 71 72 73 74 75 77 78 80 83 85 90
124 115 116 114 113 122 122 111 104 101 101 101 102 101 100 99 98 99 98 95 90 87 85 85 85 85 84 83 82 79 77 76 75 73 74 74 75 75 76 77 78 79 81 82 83 85 87 90 93
Wind_Direction
219 232 230 230 231 233 239 246 247 248 253 265 279 288 300 287 314 337 347 343 339 4 4 13 19 26 28 32 36 41 46 44 55 63 65 71 64 64 257 249 248 246 248 252 262 269 267 137 77
221 226 232 232 232 236 240 241 246 250 253 264 268 284 308 314 286 304 310 327 338 357 359 7 13 16 22 30 32 37 44 50 57 60 64 71 76 79 81 83 84 89 93 94 91 93 75 60 44
229 227 230 234 234 238 243 247 248 252 257 254 258 266 287 310 294 295 309 330 341 347 348 360 7 13 22 27 31 30 37 47 56 65 68 72 74 75 77 78 79 81 83 88 86 76 72 63 60
236 232 228 231 235 237 239 242 246 256 261 256 263 271 277 292 289 300 291 320 332 330 349 357 1 12 15 19 23 27 34 42 50 67 75 77 77 79 80 81 82 82 82 81 76 79 81 67 34
239 237 232 229 234 238 241 244 246 252 257 258 259 282 273 279 278 283 290 293 317 321 335 353 346 359 8 15 23 27 27 27 31 37 56 66 66 65 68 71 73 75 77 74 68 65 52 356 325
235 242 240 232 233 236 239 243 245 254 253 256 255 261 257 273 283 278 297 304 319 320 331 340 336 342 353 8 18 15 19 19 20 19 27 32 40 42 45 42 44 49 49 44 34 13 337 325 328
233 236 240 237 234 237 239 242 248 254 249 254 259 251 259 263 272 277 283 290 301 308 321 332 322 332 342 351 1 2 5 7 7 10 5 6 8 11 14 12 12 11 2 350 335 339 334 324 319
234 235 234 238 236 239 240 242 247 249 243 249 249 249 253 262 267 275 277 285 287 289 315 319 312 317 324 335 341 349 353 359 1 358 354 359 353 347 342 341 340 343 343 333 325 319 313 314 318
232 235 235 235 239 240 239 241 244 245 244 244 249 253 259 258 258 262 273 284 286 285 292 307 299 295 306 323 329 339 346 346 351 351 348 341 340 343 336 330 324 322 322 325 323 320 318 318 318
229 234 236 237 240 242 241 241 242 244 245 247 248 250 254 260 258 256 267 280 279 275 281 300 290 282 293 309 320 326 333 335 334 338 338 329 325 322 326 322 321 319 317 315 313 314 312 310 311
226 231 234 235 238 239 243 242 242 243 244 247 246 247 252 258 253 256 264 275 275 271 282 286 281 273 284 296 304 313 322 320 322 322 322 320 314 311 314 315 313 310 309 309 313 318 321 320 320
227 228 232 235 236 238 239 244 241 243 243 245 245 247 251 251 254 254 266 275 260 263 272 280 277 275 272 300 295 299 303 309 308 307 306 308 313 309 307 307 306 307 311 309 310 313 317 317 317
227 228 230 233 235 237 239 241 245 246 245 244 243 244 246 246 254 256 262 266 253 258 268 273 267 274 276 291 301 289 296 302 296 291 292 292 303 312 311 305 303 307 310 310 310 309 308 309 310
225 228 229 230 234 236 239 239 242 246 244 246 244 243 245 249 253 254 260 257 253 254 260 264 261 277 278 283 288 282 293 292 287 284 286 282 290 297 303 306 308 309 304 303 304 305 304 306 303
222 226 228 229 232 234 238 239 241 243 247 245 248 246 246 252 254 254 255 252 248 253 258 263 259 271 283 277 282 281 286 287 282 284 280 276 282 291 295 299 298 301 302 301 301 300 300 301 302
220 224 227 230 231 232 235 237 239 241 245 247 250 251 250 251 252 252 253 254 252 256 261 260 263 268 280 277 278 275 283 285 280 285 281 281 288 291 296 296 299 297 297 297 298 300 300 300 299
218 222 224 228 231 232 233 236 238 238 243 246 249 253 253 253 255 255 255 255 256 256 261 263 262 265 275 271 269 272 273 276 278 280 283 283 288 289 293 296 297 298 297 297 298 297 297 299 300
218 221 223 225 228 230 232 234 237 238 240 245 247 251 255 258 257 257 253 256 258 258 261 265 261 264 270 264 263 266 272 271 271 278 282 282 284 288 292 295 294 295 297 297 298 296 300 300 301
219 221 222 223 226 228 230 233 237 237 240 243 246 250 254 257 261 259 260 257 260 261 261 262 261 261 264 259 260 262 267 274 276 279 281 282 282 283 288 292 293 295 293 294 297 298 298 303 305
217 220 222 224 225 226 230 231 237 237 237 240 243 247 251 253 254 256 261 262 259 262 262 262 265 259 261 260 261 264 267 272 278 281 282 282 285 284 287 287 290 292 294 294 294 299 300 302 305
219 219 221 224 226 226 228 229 236 237 237 241 243 245 250 250 251 252 256 258 262 261 261 261 263 264 260 263 263 266 269 274 280 283 284 286 286 287 290 288 288 291 291 294 296 298 301 302 301
223 220 221 223 225 226 226 227 233 239 239 242 245 246 247 250 252 254 255 256 258 263 263 264 265 265 267 267 265 267 269 274 277 281 282 287 285 286 288 292 291 290 293 296 296 299 299 300 300
226 222 220 223 225 225 226 226 231 236 239 240 242 245 247 250 251 253 255 256 256 257 258 262 263 265 267 266 267 271 274 278 279 278 280 286 288 290 292 296 295 295 292 294 296 298 298 298 300
230 223 220 223 225 223 226 225 227 235 237 239 242 243 245 249 252 252 253 255 257 259 259 261 263 265 265 266 270 271 275 279 280 283 285 288 289 290 289 292 292 293 294 293 295 296 299 300 300
230 231 222 223 225 224 225 223 220 231 233 235 240 243 244 246 249 252 253 256 259 262 262 262 263 265 266 267 269 273 276 279 280 281 282 285 285 283 284 287 289 290 292 293 294 296 297 299 300
234 230 227 224 225 225 223 221 219 226 231 234 238 242 245 246 250 253 255 257 258 261 263 264 264 264 265 267 267 270 273 275 277 279 282 281 281 281 283 285 288 289 290 291 294 296 297 298 299
227 233 232 228 225 227 223 221 218 225 230 234 238 241 244 247 249 251 252 255 256 258 260 263 265 266 267 267 269 272 272 272 273 276 277 280 280 281 281 284 285 288 289 292 295 295 296 297 298
228 233 234 235 229 229 224 221 217 221 229 232 236 241 243 245 248 249 251 254 256 257 258 260 261 262 265 269 270 272 274 274 276 276 275 276 277 280 281 284 285 287 289 291 294 294 295 295 296
223 225 231 235 238 231 227 223 220 222 228 232 234 236 240 244 246 248 250 252 254 256 258 260 262 263 265 267 268 270 273 275 274 275 276 277 279 280 282 285 287 289 290 291 292 292 293 295 295
224 224 229 234 236 241 233 223 224 223 228 231 234 237 238 240 244 247 249 251 252 254 256 259 261 263 264 266 268 269 270 272 274 274 275 277 280 282 283 285 287 288 289 291 291 292 293 294 295
Height
10902 10905 10907 10908 10910 10912 10914 10915 10917 10918 10919 10920 10921 10920 10921 10921 10921 10920 10918 10916 10914 10912 10909 10906 10902 10898 10891 10885 10880 10875 10872 10869 10866 10864 10862 10861 10861 10861 10862 10862 10863 10864 10866 10868 10869 10870 10871 10871 10871
10897 10900 10903 10904 10905 10908 10910 10911 10912 10915 10917 10918 10919 10919 10919 10919 10918 10918 10916 10916 10914 10912 10909 10907 10904 10900 10895 10888 10883 10880 10876 10874 10870 10867 10865 10864 10864 10863 10863 10863 10864 10865 10866 10868 10870 10872 10872 10871 10872
10892 10895 10897 10899 10900 10903 10906 10907 10909 10911 10913 10915 10916 10916 10917 10917 10917 10916 10915 10915 10914 10912 10910 10907 10905 10901 10897 10893 10889 10885 10882 10878 10875 10872 10871 10870 10868 10867 10867 10867 10867 10868 10868 10870 10871 10872 10872 10872 10872
10886 10889 10891 10893 10895 10898 10901 10903 10905 10908 10909 10912 10913 10914 10915 10915 10915 10915 10914 10914 10913 10912 10909 10907 10905 10902 10899 10896 10891 10888 10885 10884 10882 10879 10877 10875 10873 10873 10872 10872 10872 10872 10873 10872 10872 10872 10872 10872 10871
10877 10883 10885 10887 10890 10893 10895 10898 10901 10904 10905 10908 10910 10911 10913 10913 10913 10913 10912 10912 10911 10910 10909 10906 10905 10903 10901 10898 10894 10891 10888 10887 10886 10884 10882 10880 10879 10878 10877 10876 10875 10874 10874 10875 10875 10874 10873 10872 10871
10868 10874 10877 10880 10883 10886 10888 10893 10897 10900 10901 10903 10905 10907 10909 10910 10910 10911 10911 10910 10909 10908 10908 10906 10904 10902 10901 10899 10896 10893 10891 10889 10888 10887 10886 10884 10883 10881 10880 10879 10878 10877 10877 10877 10876 10875 10873 10872 10870
10858 10864 10868 10872 10875 10878 10882 10886 10891 10894 10897 10898 10900 10903 10905 10907 10907 10907 10908 10907 10908 10907 10906 10906 10904 10902 10900 10898 10896 10895 10893 10890 10889 10888 10887 10886 10885 10883 10881 10880 10879 10878 10877 10876 10875 10873 10872 10870 10867
10850 10854 10859 10863 10866 10870 10874 10880 10884 10888 10891 10893 10895 10897 10901 10903 10903 10904 10904 10904 10905 10905 10904 10904 10903 10902 10900 10897 10895 10894 10893 10891 10889 10888 10886 10886 10884 10883 10881 10880 10878 10877 10876 10875 10873 10871 10870 10868 10865
10838 10844 10848 10853 10858 10863 10867 10872 10876 10881 10883 10887 10889 10892 10896 10898 10899 10900 10901 10902 10902 10902 10902 10901 10901 10900 10898 10896 10894 10892 10890 10889 10888 10886 10885 10883 10882 10881 10880 10878 10877 10876 10874 10872 10870 10868 10866 10863 10860
10828 10832 10838 10844 10849 10854 10860 10864 10868 10873 10875 10879 10883 10886 10889 10892 10894 10895 10896 10898 10898 10898 10898 10898 10897 10896 10895 10894 10892 10890 10889 10887 10886 10885 10883 10881 10880 10878 10877 10875 10873 10872 10870 10869 10867 10864 10862 10859 10856
10816 10820 10827 10835 10839 10844 10850 10854 10859 10864 10867 10871 10875 10878 10882 10885 10888 10889 10890 10892 10893 10893 10893 10894 10893 10893 10893 10891 10890 10889 10887 10885 10884 10883 10881 10879 10878 10876 10874 10872 10870 10868 10866 10864 10862 10860 10857 10854 10851
10802 10807 10816 10823 10830 10834 10840 10845 10850 10854 10860 10862 10866 10871 10874 10878 10881 10883 10885 10886 10888 10888 10889 10889 10889 10889 10889 10888 10887 10886 10884 10883 10881 10880 10878 10876 10875 10873 10871 10869 10866 10864 10862 10860 10858 10855 10852 10849 10845
10788 10793 10803 10812 10819 10825 10830 10836 10840 10845 10849 10853 10858 10862 10866 10870 10874 10876 10879 10881 10883 10883 10883 10884 10884 10884 10884 10884 10884 10882 10881 10880 10878 10876 10875 10873 10871 10870 10868 10866 10864 10861 10859 10856 10853 10850 10846 10841 10837
10772 10779 10788 10800 10808 10814 10820 10827 10830 10834 10839 10844 10849 10853 10858 10862 10866 10870 10871 10874 10876 10877 10878 10879 10878 10879 10879 10878 10878 10877 10876 10875 10873 10872 10871 10869 10867 10865 10863 10861 10859 10857 10855 10851 10847 10843 10838 10834 10829
10753 10763 10776 10787 10797 10804 10810 10819 10815 10825 10829 10835 10840 10845 10849 10853 10857 10860 10864 10866 10868 10870 10871 10872 10872 10872 10873 10872 10871 10870 10869 10869 10868 10867 10865 10863 10862 10860 10858 10856 10854 10851 10849 10845 10841 10836 10831 10826 10821
10734 10747 10763 10774 10782 10791 10797 10804 10804 10815 10820 10826 10831 10836 10840 10844 10848 10851 10855 10858 10859 10861 10862 10864 10865 10866 10866 10865 10864 10863 10862 10862 10861 10861 10860 10858 10857 10855 10852 10850 10848 10846 10842 10838 10833 10828 10823 10817 10813
10722 10737 10747 10757 10766 10777 10787 10788 10792 10804 10810 10817 10823 10828 10832 10835 10839 10843 10847 10848 10849 10852 10854 10855 10856 10858 10858 10856 10857 10856 10855 10855 10854 10854 10853 10851 10850 10847 10845 10843 10840 10838 10834 10829 10825 10819 10814 10808 10803
10709 10716 10730 10739 10746 10759 10770 10776 10779 10794 10802 10808 10816 10819 10821 10826 10829 10834 10835 10838 10840 10842 10844 10846 10847 10848 10848 10848 10848 10848 10847 10847 10846 10846 10845 10843 10841 10839 10837 10834 10831 10828 10825 10820 10815 10810 10804 10799 10794
10688 10699 10710 10719 10728 10743 10756 10766 10767 10783 10794 10800 10804 10809 10813 10816 10821 10822 10825 10828 10830 10832 10835 10836 10836 10838 10837 10838 10838 10838 10839 10838 10838 10838 10836 10834 10832 10829 10827 10825 10822 10818 10815 10811 10806 10801 10796 10791 10785
10665 10680 10694 10703 10711 10727 10739 10756 10753 10771 10785 10789 10792 10799 10801 10806 10810 10812 10814 10817 10820 10822 10822 10825 10826 10826 10827 10828 10829 10828 10829 10828 10829 10828 10827 10823 10821 10818 10816 10814 10811 10807 10804 10801 10797 10792 10788 10783 10778
10643 10662 10677 10686 10694 10712 10726 10745 10747 10759 10773 10780 10786 10789 10790 10792 10796 10800 10803 10806 10808 10809 10813 10814 10815 10816 10816 10818 10818 10819 10819 10818 10818 10817 10815 10813 10810 10807 10805 10802 10801 10797 10794 10791 10788 10784 10779 10774 10768
10628 10646 10661 10670 10680 10694 10713 10735 10746 10749 10766 10772 10774 10775 10775 10777 10782 10789 10793 10795 10797 10800 10802 10803 10806 10807 10807 10807 10807 10808 10807 10807 10808 10806 10805 10804 10801 10798 10795 10793 10791 10788 10784 10781 10778 10773 10767 10762 10756
10609 10624 10641 10651 10662 10678 10699 10721 10740 10739 10753 10757 10755 10758 10759 10763 10770 10775 10779 10782 10786 10789 10789 10793 10795 10797 10798 10797 10796 10797 10796 10797 10797 10795 10795 10792 10789 10787 10785 10783 10780 10777 10773 10769 10765 10761 10756 10751 10744
10586 10605 10624 10633 10642 10664 10680 10710 10733 10730 10737 10737 10739 10739 10743 10748 10756 10760 10763 10768 10771 10776 10778 10782 10784 10784 10785 10787 10786 10784 10783 10784 10784 10783 10782 10780 10777 10775 10773 10771 10768 10764 10761 10757 10753 10748 10743 10739 10731
10578 10583 10602 10612 10626 10659 10665 10690 10723 10705 10717 10718 10719 10720 10729 10733 10736 10743 10749 10757 10760 10763 10767 10769 10771 10770 10772 10773 10774 10771 10771 10771 10768 10770 10768 10768 10765 10762 10761 10759 10756 10751 10748 10744 10740 10735 10729 10725 10718
10556 10563 10577 10594 10615 10629 10641 10673 10703 10691 10696 10699 10703 10705 10713 10716 10724 10731 10736 10743 10748 10748 10752 10754 10754 10755 10758 10758 10758 10759 10759 10758 10756 10756 10756 10754 10752 10750 10749 10746 10743 10740 10736 10731 10727 10721 10715 10710 10703
10540 10551 10563 10578 10591 10598 10624 10652 10677 10681 10681 10687 10687 10690 10696 10704 10710 10715 10719 10724 10729 10732 10734 10737 10738 10738 10740 10741 10742 10744 10743 10743 10744 10744 10741 10738 10738 10737 10735 10734 10731 10727 10722 10718 10713 10707 10700 10694 10686
10528 10538 10546 10554 10568 10581 10609 10630 10660 10666 10665 10669 10670 10675 10680 10688 10693 10698 10703 10707 10710 10714 10716 10720 10721 10721 10724 10726 10727 10727 10727 10727 10727 10728 10725 10724 10722 10721 10719 10718 10716 10713 10709 10704 10700 10692 10685 10679 10669
10509 10521 10527 10534 10544 10563 10586 10613 10638 10649 10650 10648 10652 10657 10660 10666 10675 10682 10685 10689 10692 10695 10698 10701 10704 10706 10708 10710 10711 10713 10712 10712 10712 10711 10709 10708 10707 10705 10704 10701 10699 10695 10691 10687 10683 10676 10668 10663 10653
10491 10504 10510 10518 10534 10538 10561 10600 10619 10628 10628 10630 10634 10639 10644 10646 10651 10656 10663 10669 10674 10678 10682 10685 10688 10691 10691 10693 10695 10696 10697 10697 10697 10696 10694 10693 10691 10689 10686 10683 10680 10676 10672 10668 10663 10657 10650 10644 10637